Hourly Data Report for September 13, 2020

TORONTO CITY
ONTARIO
Current Station Operator: ECCC - MSC

43°40'00.000" N
79°24'00.000" W
112.50 m
6158355
71508
XTO

Download Data

Hourly Data (September 2020)
Hourly Data Report for September 13, 2020
TIME
LST
Temp Definition
°C
Dew Point Definition
°C
Rel Hum Definition
%
Precip. Amount Definition
mm

Wind Dir Definition
10's deg

Wind Spd Definition
km/h
Visibility Definition
km
Stn Press Definition
kPa
Hmdx Definition


Wind Chill Definition


Weather Definition


00:00 20.0 15.2 74 0.0       100.11     LegendNANA
01:00 19.5 15.5 78 0.0       100.07     LegendNANA
02:00 19.8 16.0 78 0.0       100.02     LegendNANA
03:00 19.9 16.0 78 0.0       99.94     LegendNANA
04:00 19.2 16.9 86 0.7       99.86     LegendNANA
05:00 19.7 17.5 87 0.0       99.84     LegendNANA
06:00 19.9 17.4 85 0.0       99.79     LegendNANA
07:00 19.8 17.1 84 0.0       99.76     LegendNANA
08:00 19.6 17.3 87 0.3       99.77     LegendNANA
09:00 19.4 17.7 89 7.5       99.74     LegendNANA
10:00 19.3 17.5 89 0.2       99.75     LegendNANA
11:00 20.9 18.6 86 0.0       99.78 27   LegendNANA
12:00 23.9 17.0 65 0.0       99.76 29   LegendNANA
13:00 25.3 12.1 44 0.0       99.77 28   LegendNANA
14:00 25.1 11.7 43 0.3       99.86 27   LegendNANA
15:00 23.8 10.2 42 0.2       99.91 25   LegendNANA
16:00 23.3 11.2 46 0.0       99.98 25   LegendNANA
17:00 22.7 11.0 48 0.0       100.04     LegendNANA
18:00 21.4 11.7 54 0.0       100.14     LegendNANA
19:00 20.3 12.3 60 0.0       100.22     LegendNANA
20:00 19.6 11.8 61 0.0       100.34     LegendNANA
21:00 18.2 10.3 60 0.0       100.41     LegendNANA
22:00 17.3 10.7 65 0.0       100.47     LegendNANA
23:00 16.9 10.6 67 0.0       100.55     LegendNANA

Notes on Data Quality.

Legend

  • E = Estimated
  • M = Missing
  • NA = Not Available*
  • [empty] = Indicates an unobserved value
Date modified: